| time (UTC) | temp F | wind direction | speed MPH | gust MPH | rain 1hr in | rain 24hr in | rain mn in | humidity % | barometer mb |
| 20260503175518 | 76 | 340 | 2.0 | 4.0 | 0.00 | 0.02 | 0.00 | 51 | 1011.4 |
| 20260503174517 | 75 | 335 | 2.0 | 4.0 | 0.00 | 0.02 | 0.00 | 52 | 1011.5 |
| 20260503173538 | 74 | 332 | 1.0 | 3.0 | 0.00 | 0.02 | 0.00 | 53 | 1011.6 |
| 20260503172518 | 73 | 323 | 1.0 | 3.0 | 0.00 | 0.02 | 0.00 | 56 | 1011.6 |
| 20260503171517 | 73 | 347 | 1.0 | 3.0 | 0.00 | 0.02 | 0.00 | 59 | 1011.6 |
| 20260503170520 | 71 | 343 | 1.0 | 3.0 | 0.00 | 0.02 | 0.00 | 62 | 1011.7 |
| 20260503150519 | 59 | 160 | 0.0 | 3.0 | 0.00 | 0.02 | 0.00 | 90 | 1012.0 |
| 20260503130517 | 53 | 228 | 0.0 | 1.0 | 0.00 | 0.02 | 0.00 | 99 | 1011.6 |
| 20260503110518 | 55 | 222 | 0.0 | 2.0 | 0.00 | 0.02 | 0.00 | 100 | 1011.9 |
| 20260503081519 | 58 | 222 | 0.0 | 1.0 | 0.00 | 0.03 | 0.00 | 92 | 1012.4 |
| 20260503080519 | 59 | 185 | 0.0 | 1.0 | 0.00 | 0.03 | 0.00 | 91 | 1012.4 |
| 20260503072540 | 59 | 219 | 1.0 | 4.0 | 0.00 | 0.03 | 0.00 | 91 | 1012.4 |
| 20260503071518 | 59 | 217 | 1.0 | 3.0 | 0.00 | 0.03 | 0.00 | 90 | 1012.5 |
| 20260503070517 | 59 | 223 | 1.0 | 3.0 | 0.00 | 0.03 | 0.00 | 89 | 1012.5 |
| 20260503054518 | 60 | 215 | 1.0 | 3.0 | 0.00 | 0.03 | 0.03 | 88 | 1012.7 |
| 20260503053539 | 60 | 206 | 0.0 | 3.0 | 0.00 | 0.03 | 0.03 | 87 | 1012.6 |
| 20260503052518 | 60 | 216 | 2.0 | 3.0 | 0.00 | 0.03 | 0.03 | 87 | 1012.6 |
| 20260503051518 | 61 | 181 | 0.0 | 1.0 | 0.00 | 0.03 | 0.03 | 86 | 1012.6 |
| 20260503050520 | 61 | 146 | 0.0 | 2.0 | 0.00 | 0.03 | 0.03 | 85 | 1012.4 |
| 20260503045519 | 61 | 224 | 0.0 | 2.0 | 0.00 | 0.03 | 0.03 | 84 | 1012.4 |
| 20260503044519 | 61 | 137 | 0.0 | 1.0 | 0.00 | 0.03 | 0.03 | 84 | 1012.4 |
| 20260503043520 | 61 | 186 | 0.0 | 1.0 | 0.00 | 0.03 | 0.03 | 84 | 1012.3 |
| 20260503042519 | 62 | 192 | 0.0 | 1.0 | 0.00 | 0.03 | 0.03 | 83 | 1012.2 |
| 20260503041517 | 62 | 198 | 0.0 | 2.0 | 0.00 | 0.03 | 0.03 | 83 | 1012.3 |
| 20260503040517 | 62 | 214 | 1.0 | 3.0 | 0.00 | 0.03 | 0.03 | 83 | 1012.2 |
| 20260503035518 | 63 | 213 | 0.0 | 2.0 | 0.00 | 0.03 | 0.03 | 81 | 1012.3 |
| 20260503034518 | 63 | 154 | 0.0 | 1.0 | 0.00 | 0.03 | 0.03 | 80 | 1012.3 |
| 20260503033518 | 63 | 183 | 0.0 | 1.0 | 0.00 | 0.03 | 0.03 | 79 | 1012.1 |
| 20260503032517 | 64 | 216 | 0.0 | 1.0 | 0.00 | 0.03 | 0.03 | 79 | 1012.0 |
| 20260503031517 | 64 | 220 | 0.0 | 2.0 | 0.00 | 0.03 | 0.03 | 78 | 1011.9 |
| 20260503030518 | 64 | 10 | 0.0 | 2.0 | 0.00 | 0.03 | 0.03 | 77 | 1011.8 |
| 20260503025538 | 64 | 238 | 0.0 | 2.0 | 0.00 | 0.03 | 0.03 | 77 | 1011.8 |
| 20260503024517 | 64 | 231 | 0.0 | 2.0 | 0.00 | 0.03 | 0.03 | 77 | 1012.0 |
| 20260503023518 | 64 | 226 | 0.0 | 2.0 | 0.00 | 0.03 | 0.03 | 76 | 1012.0 |
| 20260503022519 | 65 | 152 | 2.0 | 8.0 | 0.00 | 0.03 | 0.03 | 75 | 1012.4 |
| 20260503021519 | 65 | 162 | 3.0 | 7.0 | 0.00 | 0.03 | 0.03 | 75 | 1012.5 |
| 20260503020519 | 65 | 158 | 3.0 | 7.0 | 0.00 | 0.03 | 0.03 | 75 | 1012.6 |
| 20260503015520 | 66 | 124 | 4.0 | 9.0 | 0.00 | 0.03 | 0.03 | 76 | 1012.6 |
| 20260503014516 | 66 | 214 | 2.0 | 3.0 | 0.00 | 0.03 | 0.03 | 76 | 1012.0 |
| 20260503013517 | 67 | 197 | 1.0 | 3.0 | 0.00 | 0.03 | 0.03 | 75 | 1011.8 |
| 20260503012516 | 68 | 173 | 2.0 | 4.0 | 0.00 | 0.03 | 0.03 | 73 | 1011.7 |
| 20260503011518 | 68 | 130 | 2.0 | 6.0 | 0.00 | 0.03 | 0.03 | 68 | 1011.7 |
| 20260503010518 | 69 | 223 | 1.0 | 4.0 | 0.00 | 0.03 | 0.03 | 67 | 1011.7 |
| 20260503005518 | 69 | 237 | 0.0 | 2.0 | 0.00 | 0.03 | 0.03 | 67 | 1011.6 |
| 20260503004518 | 69 | 229 | 0.0 | 2.0 | 0.00 | 0.03 | 0.03 | 66 | 1011.6 |
| 20260503003518 | 69 | 327 | 0.0 | 1.0 | 0.00 | 0.03 | 0.03 | 66 | 1011.5 |
| 20260503002537 | 69 | 216 | 0.0 | 1.0 | 0.00 | 0.03 | 0.03 | 66 | 1011.5 |
| 20260503001517 | 69 | 211 | 0.0 | 2.0 | 0.00 | 0.03 | 0.03 | 66 | 1011.5 |
| 20260503000518 | 70 | 318 | 0.0 | 1.0 | 0.00 | 0.03 | 0.03 | 65 | 1011.6 |
| 20260502235518 | 70 | 230 | 0.0 | 2.0 | 0.00 | 0.03 | 0.03 | 64 | 1011.7 |
| 20260502234519 | 70 | 351 | 0.0 | 1.0 | 0.00 | 0.03 | 0.03 | 63 | 1011.8 |
| 20260502233518 | 70 | 348 | 0.0 | 2.0 | 0.00 | 0.03 | 0.03 | 65 | 1012.0 |
| 20260502232518 | 70 | 226 | 1.0 | 4.0 | 0.00 | 0.03 | 0.03 | 64 | 1012.1 |
| 20260502231519 | 70 | 314 | 0.0 | 2.0 | 0.00 | 0.03 | 0.03 | 65 | 1012.3 |
| 20260502230519 | 70 | 338 | 1.0 | 2.0 | 0.00 | 0.03 | 0.03 | 65 | 1012.4 |
| 20260502225519 | 69 | 250 | 0.0 | 2.0 | 0.00 | 0.03 | 0.03 | 64 | 1012.5 |
| 20260502224520 | 70 | 345 | 1.0 | 4.0 | 0.00 | 0.03 | 0.03 | 63 | 1012.7 |
| 20260502223520 | 69 | 239 | 0.0 | 2.0 | 0.00 | 0.03 | 0.03 | 64 | 1012.8 |
| 20260502222517 | 68 | 319 | 1.0 | 3.0 | 0.00 | 0.03 | 0.03 | 66 | 1013.0 |
| 20260502221517 | 69 | 341 | 1.0 | 3.0 | 0.00 | 0.03 | 0.03 | 65 | 1013.1 |
| 20260502220518 | 67 | 237 | 0.0 | 3.0 | 0.00 | 0.03 | 0.03 | 67 | 1013.2 |
| 20260502215517 | 67 | 325 | 1.0 | 4.0 | 0.00 | 0.03 | 0.03 | 67 | 1013.3 |
| 20260502214519 | 66 | 290 | 1.0 | 3.0 | 0.00 | 0.03 | 0.03 | 68 | 1013.6 |
| 20260502213518 | 65 | 87 | 2.0 | 7.0 | 0.00 | 0.03 | 0.03 | 70 | 1013.7 |
| 20260502212600 | 64 | 231 | 1.0 | 3.0 | 0.00 | 0.03 | 0.03 | 72 | 1013.7 |
| 20260502211519 | 64 | 341 | 1.0 | 3.0 | 0.00 | 0.03 | 0.03 | 72 | 1013.9 |
| 20260502210517 | 64 | 328 | 1.0 | 3.0 | 0.00 | 0.03 | 0.03 | 71 | 1014.1 |
| 20260502205519 | 64 | 43 | 0.0 | 2.0 | 0.00 | 0.03 | 0.03 | 72 | 1014.2 |
| 20260502204538 | 63 | 353 | 1.0 | 3.0 | 0.00 | 0.03 | 0.03 | 73 | 1014.4 |
| 20260502203559 | 62 | 162 | 1.0 | 4.0 | 0.00 | 0.03 | 0.03 | 74 | 1014.6 |
| 20260502202538 | 62 | 13 | 1.0 | 3.0 | 0.00 | 0.03 | 0.03 | 75 | 1014.7 |
| 20260502201518 | 61 | 204 | 1.0 | 3.0 | 0.00 | 0.03 | 0.03 | 76 | 1014.9 |
| 20260502200538 | 60 | 116 | 1.0 | 4.0 | 0.00 | 0.03 | 0.03 | 79 | 1015.0 |
| 20260502195517 | 59 | 134 | 0.0 | 3.0 | 0.00 | 0.03 | 0.03 | 79 | 1015.1 |
| 20260502194537 | 59 | 243 | 1.0 | 4.0 | 0.00 | 0.03 | 0.03 | 81 | 1015.1 |
| 20260502193537 | 58 | 143 | 0.0 | 2.0 | 0.00 | 0.03 | 0.03 | 82 | 1015.2 |
| 20260502192516 | 57 | 199 | 1.0 | 4.0 | 0.00 | 0.03 | 0.03 | 85 | 1015.3 |
| 20260502191518 | 56 | 333 | 1.0 | 6.0 | 0.02 | 0.03 | 0.03 | 86 | 1015.3 |
| 20260502190517 | 56 | 342 | 0.0 | 2.0 | 0.02 | 0.03 | 0.03 | 87 | 1015.7 |
| 20260502185518 | 55 | 147 | 0.0 | 2.0 | 0.02 | 0.03 | 0.03 | 89 | 1015.9 |
| 20260502184538 | 55 | 219 | 1.0 | 3.0 | 0.02 | 0.03 | 0.03 | 88 | 1015.8 |
| 20260502183517 | 55 | 143 | 1.0 | 3.0 | 0.02 | 0.03 | 0.03 | 89 | 1015.6 |
| 20260502182518 | 54 | 120 | 0.0 | 2.0 | 0.02 | 0.02 | 0.02 | 90 | 1015.6 |
| 20260502181517 | 54 | 226 | 0.0 | 3.0 | 0.00 | 0.01 | 0.01 | 85 | 1015.7 |
| 20260502180517 | 54 | 263 | 0.0 | 2.0 | 0.00 | 0.01 | 0.01 | 84 | 1015.5 |